Tracking 28091 objects as of 30-Sep-2023
HD Live streaming from Space Station
objects crossing your sky now

SL-6 DEB

Track SL-6 DEB now!
10-day predictions


NORAD ID: 13911
Int'l Code: 1981-088L
Perigee: 650.1 km
Apogee: 12,390.7 km
Inclination: 63.3 °
Period: 242.8 minutes
Semi major axis: 12891 km
RCS: 1.6368 m2 (large)
Launch date: September 11, 1981
Source: Commonwealth of Independent States (former USSR) (CIS)
Launch site: PLESETSK MISSILE AND SPACE COMPLEX (PKMTR)

Note: This is SATELLITE DEBRIS
Your satellite tracking list
Your tracking list is empty




NASA's NSSDC Master Catalog

Two Line Element Set (TLE):
1 13911U 81088L   23269.81903327  .00001831  00000-0  68395-2 0  9991
2 13911  63.2635  78.4913 4553642 208.1578 117.2441  5.93131452 54512
Source of the keplerian elements: AFSPC